This demonstration page uses our WeatherBlox Daily Observations layout. Learn more.

Left ArrowRight Arrow

36.19886, -115.1175

Hourly Observations for May 5, 2020

Temp ( °F °C ) Dew Point ( °F °C ) Humidity (%) Winds ( mph kmh ) Pressure ( in mb ) Visibility ( mi km ) Precip ( " mm )
12:53 am 00:53 Clear 73 22.8 22 -5.6 15 15 N N/A 30.01 1016 10 16 N/A
1:53 am 01:53 Clear 70 21.1 24 -4.4 18 18 WNW 3 6 30.01 1016 10 16 N/A
2:53 am 02:53 Clear 69 20.6 25 -3.9 19 19 WSW 6 9 30.02 1017 10 16 N/A
3:53 am 03:53 Clear 66 18.9 25 -3.9 21 21 NNW 8 13 30.02 1017 10 16 N/A
4:53 am 04:53 Clear 68 20 23 -5 18 18 VRB 3 6 30.02 1017 10 16 N/A
6:53 am 06:53 Sunny 68 20 23 -5 18 18 WNW 6 9 30.07 1018 10 16 N/A
7:53 am 07:53 Sunny 75 23.9 19 -7.2 12 12 NW 10 17 30.07 1018 10 16 N/A
8:53 am 08:53 Sunny 78 25.6 21 -6.1 12 12 N 6 9 30.08 1019 10 16 N/A
9:53 am 09:53 Sunny 82 27.8 19 -7.2 9 9 N N/A 30.07 1018 10 16 N/A
10:53 am 10:53 Sunny 83 28.3 17 -8.3 8 8 E 6 9 30.06 1018 10 16 N/A
11:53 am 11:53 Sunny 86 30 14 -10 7 7 SSE 6 9 30.04 1017 10 16 N/A
12:53 pm 12:53 Sunny 89 31.7 15 -9.4 6 6 E 10 17 30.02 1017 10 16 N/A
1:53 pm 13:53 Sunny 91 32.8 13 -10.6 5 5 VRB 7 11 30.00 1016 10 16 N/A
2:53 pm 14:53 Sunny 90 32.2 13 -10.6 6 6 N N/A 29.98 1015 10 16 N/A
3:53 pm 15:53 Sunny 92 33.3 12 -11.1 5 5 SE 8 13 29.95 1014 10 16 N/A
4:53 pm 16:53 Sunny 92 33.3 10 -12.2 5 5 VRB 3 6 29.93 1014 10 16 N/A
5:53 pm 17:53 Sunny 92 33.3 13 -10.6 5 5 S 6 9 29.93 1013 10 16 N/A
6:53 pm 18:53 Sunny 91 32.8 12 -11.1 5 5 N N/A 29.92 1013 10 16 N/A
7:53 pm 19:53 Clear 88 31.1 13 -10.6 6 6 E 3 6 29.92 1013 10 16 N/A
8:53 pm 20:53 Clear 85 29.4 18 -7.8 8 8 N N/A 29.93 1014 10 16 N/A
9:53 pm 21:53 Clear 80 26.7 25 -3.9 13 13 WNW 8 13 29.95 1014 10 16 N/A
10:53 pm 22:53 Clear 76 24.4 25 -3.9 15 15 NW 5 7 29.96 1014 10 16 N/A
11:53 pm 23:53 Clear 74 23.3 25 -3.9 16 16 NW 6 9 29.96 1014 10 16 N/A

Powered by AerisWeather